,,Stat6,,Stat2,,Stat8,,Stat9,,Stat10,,Wind1,,Wind1,
time,status,PA1M_AVG,status,PR1M_SUM,status,RH1M_AVG,status,SR1M_AVG,status,TA1M_AVG,status,W1dAve1m,status,W1sAve1m,
2005-08-28, 00:00:00,VALID,917.768,VALID,0,VALID,99.3416,VALID,0.0339617,VALID,18.951,VALID,343,VALID,0.706771,
2005-08-28, 00:01:00,VALID,917.77,VALID,0,VALID,99.1852,VALID,0.0849042,VALID,19.0056,VALID,330,VALID,0.759811,
2005-08-28, 00:02:00,VALID,917.78,VALID,0,VALID,98.9168,VALID,0.0849042,VALID,19.0794,VALID,339,VALID,0.672222,
2005-08-28, 00:03:00,VALID,917.773,VALID,0,VALID,98.4731,VALID,0.0339617,VALID,19.0921,VALID,346,VALID,0.827553,
2005-08-28, 00:04:00,VALID,917.762,VALID,0,VALID,98.3434,VALID,0.0509425,VALID,19.109,VALID,342,VALID,0.762355,
2005-08-28, 00:05:00,VALID,917.723,VALID,0,VALID,98.2391,VALID,0.0679233,VALID,19.1514,VALID,342,VALID,0.582031,
2005-08-28, 00:06:00,VALID,917.731,VALID,0,VALID,97.8932,VALID,0.0849042,VALID,19.1316,VALID,338,VALID,0.268169,
2005-08-28, 00:07:00,VALID,917.72,VALID,0,VALID,97.7241,VALID,0.0509425,VALID,19.1115,VALID,334,VALID,0.561047,
2005-08-28, 00:08:00,VALID,917.686,VALID,0,VALID,97.9097,VALID,0.0679233,VALID,19.1505,VALID,346,VALID,0.569931,
2005-08-28, 00:09:00,VALID,917.653,VALID,0,VALID,97.541,VALID,0.0509425,VALID,19.141,VALID,17,VALID,0.958212,
2005-08-28, 00:10:00,VALID,917.644,VALID,0,VALID,97.3935,VALID,0.0679233,VALID,19.1189,VALID,358,VALID,0.731105,
2005-08-28, 00:11:00,VALID,917.638,VALID,0,VALID,97.6071,VALID,0.0849042,VALID,19.1122,VALID,360,VALID,0.921503,
2005-08-28, 00:12:00,VALID,917.636,VALID,0,VALID,97.8487,VALID,0.0679233,VALID,19.141,VALID,349,VALID,1.08903,
2005-08-28, 00:13:00,VALID,917.644,VALID,0,VALID,97.7699,VALID,0.0849042,VALID,19.1671,VALID,351,VALID,0.946007,
2005-08-28, 00:14:00,VALID,917.625,VALID,0,VALID,97.4837,VALID,0.0169808,VALID,19.1736,VALID,356,VALID,0.786458,
2005-08-28, 00:15:00,VALID,917.623,VALID,0,VALID,97.246,VALID,-0.0339617,VALID,19.1383,VALID,11,VALID,0.999092,
2005-08-28, 00:16:00,VALID,917.629,VALID,0,VALID,97.1048,VALID,0,VALID,19.0903,VALID,5,VALID,0.971354,
2005-08-28, 00:17:00,VALID,917.628,VALID,0,VALID,97.3337,VALID,-0.0509425,VALID,19.0647,VALID,2,VALID,0.841933,
2005-08-28, 00:18:00,VALID,917.596,VALID,0,VALID,97.7304,VALID,-0.0509425,VALID,19.0488,VALID,5,VALID,1.11031,
2005-08-28, 00:19:00,VALID,917.602,VALID,0,VALID,97.5651,VALID,-0.0339617,VALID,19.0294,VALID,5,VALID,0.947396,
2005-08-28, 00:20:00,VALID,917.592,VALID,0,VALID,97.9403,VALID,-0.0339617,VALID,19.0329,VALID,347,VALID,0.820668,
2005-08-28, 00:21:00,VALID,917.571,VALID,0,VALID,98.178,VALID,-0.0169808,VALID,19.0352,VALID,5,VALID,0.919744,
2005-08-28, 00:22:00,VALID,917.576,VALID,0,VALID,98.1984,VALID,0,VALID,19.0523,VALID,5,VALID,0.681017,
2005-08-28, 00:23:00,VALID,917.592,VALID,0,VALID,98.2315,VALID,-0.0339617,VALID,19.0523,VALID,353,VALID,0.533398,
2005-08-28, 00:24:00,VALID,917.586,VALID,0,VALID,98.2429,VALID,-0.0339617,VALID,19.0384,VALID,3,VALID,0.52846,
2005-08-28, 00:25:00,VALID,917.597,VALID,0,VALID,98.3154,VALID,-0.0509425,VALID,19.0709,VALID,10,VALID,0.418229,
2005-08-28, 00:26:00,VALID,917.593,VALID,0,VALID,98.206,VALID,0,VALID,19.0583,VALID,2,VALID,0.495561,
2005-08-28, 00:27:00,VALID,917.62,VALID,0,VALID,98.3344,VALID,-0.0169808,VALID,19.0754,VALID,354,VALID,0.517485,
2005-08-28, 00:28:00,VALID,917.634,VALID,0,VALID,98.3179,VALID,-0.0339617,VALID,19.0684,VALID,349,VALID,0.567073,
2005-08-28, 00:29:00,VALID,917.622,VALID,0,VALID,98.4158,VALID,-0.0169808,VALID,19.0546,VALID,349,VALID,0.679878,
2005-08-28, 00:30:00,VALID,917.636,VALID,0,VALID,98.5036,VALID,0,VALID,19.0682,VALID,7,VALID,0.785065,
2005-08-28, 00:31:00,VALID,917.608,VALID,0,VALID,98.5722,VALID,-0.0339617,VALID,19.0742,VALID,8,VALID,0.893643,
2005-08-28, 00:32:00,VALID,917.616,VALID,0,VALID,98.3853,VALID,-0.0679233,VALID,19.0776,VALID,349,VALID,0.704728,
2005-08-28, 00:33:00,VALID,917.6,VALID,0,VALID,98.6282,VALID,-0.0679233,VALID,19.0973,VALID,351,VALID,0.758854,
2005-08-28, 00:34:00,VALID,917.594,VALID,0,VALID,98.7108,VALID,-0.0339617,VALID,19.1392,VALID,359,VALID,0.850654,
2005-08-28, 00:35:00,VALID,917.579,VALID,0,VALID,98.7821,VALID,0,VALID,19.1812,VALID,351,VALID,1.00581,
2005-08-28, 00:36:00,VALID,917.596,VALID,0,VALID,98.5697,VALID,-0.0509425,VALID,19.2066,VALID,346,VALID,0.527699,
2005-08-28, 00:37:00,VALID,917.597,VALID,0,VALID,98.4603,VALID,-0.0339617,VALID,19.2135,VALID,339,VALID,0.668501,
2005-08-28, 00:38:00,VALID,917.611,VALID,0,VALID,98.6002,VALID,-0.0679233,VALID,19.256,VALID,336,VALID,0.390092,
2005-08-28, 00:39:00,VALID,917.644,VALID,0,VALID,98.4006,VALID,-0.0849042,VALID,19.2523,VALID,346,VALID,0.379836,
2005-08-28, 00:40:00,VALID,917.668,VALID,0,VALID,98.4514,VALID,-0.0509425,VALID,19.252,VALID,343,VALID,1.09302,
2005-08-28, 00:41:00,VALID,917.677,VALID,0,VALID,98.529,VALID,-0.0509425,VALID,19.2555,VALID,4,VALID,1.21054,
2005-08-28, 00:42:00,VALID,917.685,VALID,0,VALID,98.4108,VALID,-0.0679233,VALID,19.2493,VALID,15,VALID,1.25337,
2005-08-28, 00:43:00,VALID,917.68,VALID,0,VALID,98.6028,VALID,-0.0339617,VALID,19.2299,VALID,3,VALID,1.30017,
2005-08-28, 00:44:00,VALID,917.673,VALID,0,VALID,98.9944,VALID,-0.0849042,VALID,19.2592,VALID,352,VALID,1.00149,
2005-08-28, 00:45:00,VALID,917.657,VALID,0,VALID,99.2068,VALID,-0.0849042,VALID,19.2784,VALID,353,VALID,1.06399,
2005-08-28, 00:46:00,VALID,917.673,VALID,0,VALID,99.1445,VALID,-0.0679233,VALID,19.2784,VALID,3,VALID,0.973837,
2005-08-28, 00:47:00,VALID,917.664,VALID,0,VALID,99.0656,VALID,-0.0679233,VALID,19.2684,VALID,2,VALID,0.982469,
2005-08-28, 00:48:00,VALID,917.668,VALID,0,VALID,99.2971,VALID,-0.0849042,VALID,19.2587,VALID,348,VALID,1.01803,
2005-08-28, 00:49:00,VALID,917.694,VALID,0,VALID,99.4687,VALID,-0.0679233,VALID,19.2751,VALID,356,VALID,1.00781,
2005-08-28, 00:50:00,VALID,917.719,VALID,0,VALID,99.5031,VALID,-0.0509425,VALID,19.2717,VALID,23,VALID,0.935138,
2005-08-28, 00:51:00,VALID,917.722,VALID,0,VALID,99.4255,VALID,-0.0339617,VALID,19.2456,VALID,355,VALID,0.976563,
2005-08-28, 00:52:00,VALID,917.735,VALID,0,VALID,99.5577,VALID,-0.0679233,VALID,19.2493,VALID,1,VALID,0.97093,
2005-08-28, 00:53:00,VALID,917.733,VALID,0,VALID,99.6671,VALID,-0.0509425,VALID,19.2592,VALID,11,VALID,1.33394,
2005-08-28, 00:54:00,VALID,917.738,VALID,0,VALID,99.8438,VALID,-0.101885,VALID,19.288,VALID,4,VALID,0.894622,
2005-08-28, 00:55:00,VALID,917.741,VALID,0,VALID,99.9977,VALID,-0.0679233,VALID,19.3044,VALID,5,VALID,1.12637,
2005-08-28, 00:56:00,VALID,917.737,VALID,0,VALID,100,VALID,-0.0339617,VALID,19.3402,VALID,10,VALID,1.00218,
2005-08-28, 00:57:00,VALID,917.748,VALID,0,VALID,100,VALID,-0.0679233,VALID,19.3683,VALID,8,VALID,0.526708,
2005-08-28, 00:58:00,VALID,917.773,VALID,0,VALID,100,VALID,-0.0339617,VALID,19.3911,VALID,339,VALID,0.915625,
2005-08-28, 00:59:00,VALID,917.791,VALID,0,VALID,100,VALID,-0.0679233,VALID,19.4105,VALID,30,VALID,0.591844,
2005-08-28, 01:00:00,VALID,917.797,VALID,0,VALID,100,VALID,-0.0339617,VALID,19.4001,VALID,356,VALID,0.611919,
2005-08-28, 01:01:00,VALID,917.808,VALID,0,VALID,100,VALID,-0.0509425,VALID,19.417,VALID,355,VALID,0.616461,
2005-08-28, 01:02:00,VALID,917.816,VALID,0,VALID,100,VALID,-0.0339617,VALID,19.4294,VALID,17,VALID,0.796303,
2005-08-28, 01:03:00,VALID,917.834,VALID,0,VALID,100,VALID,-0.0509425,VALID,19.4324,VALID,10,VALID,1.03534,
2005-08-28, 01:04:00,VALID,917.842,VALID,0,VALID,100,VALID,-0.0679233,VALID,19.4652,VALID,4,VALID,0.810724,
2005-08-28, 01:05:00,VALID,917.859,VALID,0,VALID,100,VALID,-0.0679233,VALID,19.4786,VALID,350,VALID,0.627477,
2005-08-28, 01:06:00,VALID,917.859,VALID,0,VALID,100,VALID,-0.0169808,VALID,19.4843,VALID,2,VALID,0.678943,
2005-08-28, 01:07:00,VALID,917.869,VALID,0,VALID,100,VALID,-0.0509425,VALID,19.5007,VALID,355,VALID,0.767857,
2005-08-28, 01:08:00,VALID,917.859,VALID,0,VALID,100,VALID,-0.0169808,VALID,19.5198,VALID,1,VALID,0.971768,
2005-08-28, 01:09:00,VALID,917.878,VALID,0,VALID,100,VALID,-0.0169808,VALID,19.5517,VALID,358,VALID,0.497093,
2005-08-28, 01:10:00,VALID,917.889,VALID,0,VALID,100,VALID,-0.0509425,VALID,19.5519,VALID,353,VALID,0.00381098,
2005-08-28, 01:11:00,VALID,917.876,VALID,0,VALID,99.9929,VALID,-0.0339617,VALID,19.5616,VALID,353,VALID,0.338246,
2005-08-28, 01:12:00,VALID,917.861,VALID,0,VALID,99.9583,VALID,-0.0509425,VALID,19.5454,VALID,353,VALID,0.312314,
2005-08-28, 01:13:00,VALID,917.861,VALID,0,VALID,99.9769,VALID,-0.0509425,VALID,19.5422,VALID,353,VALID,0.443859,
2005-08-28, 01:14:00,VALID,917.865,VALID,0,VALID,100,VALID,-0.0849042,VALID,19.5492,VALID,353,VALID,0.231707,
2005-08-28, 01:15:00,VALID,917.838,VALID,0,VALID,100,VALID,-0.0339617,VALID,19.5422,VALID,353,VALID,0.0440168,
2005-08-28, 01:16:00,VALID,917.808,VALID,0,VALID,100,VALID,-0.0169808,VALID,19.5323,VALID,353,VALID,0,
2005-08-28, 01:17:00,VALID,917.785,VALID,0,VALID,100,VALID,-0.0169808,VALID,19.5293,VALID,353,VALID,0,
2005-08-28, 01:18:00,VALID,917.772,VALID,0,VALID,100,VALID,-0.0169808,VALID,19.5092,VALID,353,VALID,0,
2005-08-28, 01:19:00,VALID,917.745,VALID,0,VALID,99.9669,VALID,-0.0169808,VALID,19.5097,VALID,353,VALID,0,
2005-08-28, 01:20:00,VALID,917.717,VALID,0,VALID,99.9189,VALID,-0.0339617,VALID,19.4972,VALID,353,VALID,0.0932292,
2005-08-28, 01:21:00,VALID,917.675,VALID,0,VALID,99.9265,VALID,-0.0509425,VALID,19.4776,VALID,353,VALID,0.00319602,
2005-08-28, 01:22:00,VALID,917.647,VALID,0,VALID,99.9214,VALID,-0.0339617,VALID,19.4645,VALID,353,VALID,0.262429,
2005-08-28, 01:23:00,VALID,917.602,VALID,0,VALID,99.9087,VALID,-0.0509425,VALID,19.4453,VALID,353,VALID,0.516741,
2005-08-28, 01:24:00,VALID,917.568,VALID,0,VALID,99.9659,VALID,-0.0169808,VALID,19.4423,VALID,353,VALID,0.480196,
2005-08-28, 01:25:00,VALID,917.539,VALID,0,VALID,99.9967,VALID,-0.0849042,VALID,19.4326,VALID,353,VALID,0.518924,
2005-08-28, 01:26:00,VALID,917.526,VALID,0,VALID,99.998,VALID,-0.0169808,VALID,19.4128,VALID,360,VALID,0.384766,
2005-08-28, 01:27:00,VALID,917.52,VALID,0,VALID,100,VALID,-0.0169808,VALID,19.3902,VALID,360,VALID,0.114879,
2005-08-28, 01:28:00,VALID,917.507,VALID,0,VALID,99.999,VALID,-0.0339617,VALID,19.3837,VALID,360,VALID,0.210742,
2005-08-28, 01:29:00,VALID,917.478,VALID,0,VALID,99.9957,VALID,-0.0169808,VALID,19.3546,VALID,360,VALID,0.362723,
2005-08-28, 01:30:00,VALID,917.479,VALID,0,VALID,100,VALID,0,VALID,19.3122,VALID,22,VALID,0.799293,
2005-08-28, 01:31:00,VALID,917.458,VALID,0,VALID,100,VALID,-0.0679233,VALID,19.3228,VALID,20,VALID,0.493608,
2005-08-28, 01:32:00,VALID,917.45,VALID,0,VALID,100,VALID,-0.0339617,VALID,19.3159,VALID,17,VALID,0.483398,
2005-08-28, 01:33:00,VALID,917.445,VALID,0,VALID,100,VALID,-0.0509425,VALID,19.3164,VALID,18,VALID,0.267969,
2005-08-28, 01:34:00,VALID,917.449,VALID,0,VALID,100,VALID,-0.0339617,VALID,19.3194,VALID,18,VALID,0.284299,
2005-08-28, 01:35:00,VALID,917.451,VALID,0,VALID,100,VALID,-0.0339617,VALID,19.3027,VALID,18,VALID,0.351381,
2005-08-28, 01:36:00,VALID,917.445,VALID,0,VALID,100,VALID,0,VALID,19.3164,VALID,18,VALID,0.501334,
2005-08-28, 01:37:00,VALID,917.437,VALID,0,VALID,100,VALID,-0.0339617,VALID,19.3291,VALID,18,VALID,0.390997,
2005-08-28, 01:38:00,VALID,917.457,VALID,0,VALID,100,VALID,-0.0339617,VALID,19.3447,VALID,18,VALID,0.185138,
2005-08-28, 01:39:00,VALID,917.477,VALID,0,VALID,100,VALID,0,VALID,19.3544,VALID,18,VALID,0.30907,
2005-08-28, 01:40:00,VALID,917.462,VALID,0,VALID,100,VALID,-0.0509425,VALID,19.3678,VALID,18,VALID,0.230664,
2005-08-28, 01:41:00,VALID,917.486,VALID,0,VALID,100,VALID,-0.0509425,VALID,19.381,VALID,18,VALID,0.425872,
2005-08-28, 01:42:00,VALID,917.509,VALID,0,VALID,100,VALID,-0.0339617,VALID,19.4128,VALID,16,VALID,0.491257,
2005-08-28, 01:43:00,VALID,917.527,VALID,0,VALID,100,VALID,-0.0169808,VALID,19.459,VALID,359,VALID,0.599019,
2005-08-28, 01:44:00,VALID,917.527,VALID,0,VALID,100,VALID,-0.0169808,VALID,19.4709,VALID,14,VALID,0.598611,
2005-08-28, 01:45:00,VALID,917.543,VALID,0,VALID,100,VALID,-0.0169808,VALID,19.4702,VALID,14,VALID,0.380273,
2005-08-28, 01:46:00,VALID,917.521,VALID,0,VALID,100,VALID,0,VALID,19.4896,VALID,340,VALID,0.504192,
2005-08-28, 01:47:00,VALID,917.523,VALID,0,VALID,100,VALID,0,VALID,19.5151,VALID,334,VALID,0.192255,
2005-08-28, 01:48:00,VALID,917.496,VALID,0,VALID,100,VALID,0.0339617,VALID,19.5579,VALID,339,VALID,0.267485,
2005-08-28, 01:49:00,VALID,917.5,VALID,0,VALID,100,VALID,0,VALID,19.5673,VALID,344,VALID,0.136242,
2005-08-28, 01:50:00,VALID,917.48,VALID,0,VALID,100,VALID,0.0169808,VALID,19.5609,VALID,344,VALID,0.180903,
2005-08-28, 01:51:00,VALID,917.463,VALID,0,VALID,99.9664,VALID,0.0169808,VALID,19.5378,VALID,349,VALID,0.59811,
2005-08-28, 01:52:00,VALID,917.449,VALID,0,VALID,99.7612,VALID,0,VALID,19.5117,VALID,355,VALID,0.455602,
2005-08-28, 01:53:00,VALID,917.441,VALID,0,VALID,99.7103,VALID,0.0339617,VALID,19.5124,VALID,355,VALID,0.328697,
2005-08-28, 01:54:00,VALID,917.429,VALID,0,VALID,99.7803,VALID,0.0339617,VALID,19.499,VALID,355,VALID,0.0982921,
2005-08-28, 01:55:00,VALID,917.432,VALID,0,VALID,99.8896,VALID,0.0679233,VALID,19.5186,VALID,355,VALID,0.0669643,
2005-08-28, 01:56:00,VALID,917.42,VALID,0,VALID,99.9481,VALID,0.0169808,VALID,19.5184,VALID,355,VALID,0,
2005-08-28, 01:57:00,VALID,917.403,VALID,0,VALID,99.9087,VALID,0.0339617,VALID,19.5283,VALID,355,VALID,0,
2005-08-28, 01:58:00,VALID,917.387,VALID,0,VALID,99.7993,VALID,0.0169808,VALID,19.5219,VALID,355,VALID,0.12686,
2005-08-28, 01:59:00,VALID,917.388,VALID,0,VALID,99.7192,VALID,0.0509425,VALID,19.5097,VALID,355,VALID,0.12965,
2005-08-28, 02:00:00,VALID,917.386,VALID,0,VALID,99.6226,VALID,-0.118866,VALID,19.4776,VALID,48,VALID,0.392987,
2005-08-28, 02:01:00,VALID,917.374,VALID,0,VALID,99.1928,VALID,-0.118866,VALID,19.4369,VALID,122,VALID,0.582031,
2005-08-28, 02:02:00,VALID,917.37,VALID,0,VALID,98.7503,VALID,-0.101885,VALID,19.3293,VALID,130,VALID,0.609375,
2005-08-28, 02:03:00,VALID,917.369,VALID,0,VALID,98.6676,VALID,-0.101885,VALID,19.249,VALID,130,VALID,0.604297,
2005-08-28, 02:04:00,VALID,917.378,VALID,0,VALID,98.8584,VALID,-0.0849042,VALID,19.175,VALID,130,VALID,0.47532,
2005-08-28, 02:05:00,VALID,917.384,VALID,0,VALID,98.9982,VALID,-0.101885,VALID,19.1065,VALID,130,VALID,0.260861,
2005-08-28, 02:06:00,VALID,917.383,VALID,0,VALID,99.1902,VALID,-0.0509425,VALID,19.0386,VALID,130,VALID,0.292597,
2005-08-28, 02:07:00,VALID,917.405,VALID,0,VALID,99.4153,VALID,-0.0849042,VALID,19.0135,VALID,130,VALID,0.486151,
2005-08-28, 02:08:00,VALID,917.383,VALID,0,VALID,99.5399,VALID,-0.101885,VALID,18.9586,VALID,130,VALID,0.49399,
2005-08-28, 02:09:00,VALID,917.376,VALID,0,VALID,99.7917,VALID,-0.101885,VALID,18.936,VALID,131,VALID,0.777521,
2005-08-28, 02:10:00,VALID,917.375,VALID,0,VALID,100,VALID,-0.118866,VALID,18.9196,VALID,137,VALID,0.713728,
2005-08-28, 02:11:00,VALID,917.366,VALID,0,VALID,100,VALID,-0.0849042,VALID,18.9229,VALID,130,VALID,0.419457,
2005-08-28, 02:12:00,VALID,917.354,VALID,0,VALID,100,VALID,-0.0849042,VALID,18.9092,VALID,130,VALID,0.482701,
2005-08-28, 02:13:00,VALID,917.345,VALID,0,VALID,100,VALID,-0.0849042,VALID,18.9355,VALID,130,VALID,0.378472,
2005-08-28, 02:14:00,VALID,917.342,VALID,0,VALID,100,VALID,-0.101885,VALID,18.9358,VALID,130,VALID,0.271181,
2005-08-28, 02:15:00,VALID,917.359,VALID,0,VALID,100,VALID,-0.0169808,VALID,18.951,VALID,130,VALID,0.0946378,
2005-08-28, 02:16:00,VALID,917.367,VALID,0,VALID,100,VALID,0,VALID,18.9604,VALID,130,VALID,0.348323,
2005-08-28, 02:17:00,VALID,917.36,VALID,0,VALID,100,VALID,-0.0169808,VALID,18.9507,VALID,123,VALID,0.601563,
2005-08-28, 02:18:00,VALID,917.365,VALID,0,VALID,100,VALID,0,VALID,18.9771,VALID,94,VALID,0.889757,
2005-08-28, 02:19:00,VALID,917.366,VALID,0,VALID,100,VALID,0,VALID,19.0218,VALID,94,VALID,0.703697,
2005-08-28, 02:20:00,VALID,917.372,VALID,0,VALID,100,VALID,0,VALID,19.0725,VALID,94,VALID,0.235054,
2005-08-28, 02:21:00,VALID,917.373,VALID,0,VALID,100,VALID,-0.0169808,VALID,19.1216,VALID,94,VALID,0,
2005-08-28, 02:22:01,VALID,917.361,VALID,0,VALID,100,VALID,0.0509425,VALID,19.1438,VALID,94,VALID,0,
2005-08-28, 02:23:00,VALID,917.336,VALID,0,VALID,100,VALID,0,VALID,19.1736,VALID,94,VALID,0,
2005-08-28, 02:24:00,VALID,917.314,VALID,0,VALID,100,VALID,0.0339617,VALID,19.1966,VALID,94,VALID,0,
2005-08-28, 02:25:00,VALID,917.303,VALID,0,VALID,100,VALID,0,VALID,19.2414,VALID,94,VALID,0,
2005-08-28, 02:26:00,VALID,917.282,VALID,0,VALID,100,VALID,0,VALID,19.2637,VALID,94,VALID,0,
2005-08-28, 02:27:00,VALID,917.258,VALID,0,VALID,100,VALID,0,VALID,19.2478,VALID,94,VALID,0.18045,
2005-08-28, 02:28:00,VALID,917.231,VALID,0,VALID,100,VALID,0,VALID,19.2252,VALID,94,VALID,0.40408,
2005-08-28, 02:29:00,VALID,917.234,VALID,0,VALID,100,VALID,0,VALID,19.186,VALID,94,VALID,0.371449,
2005-08-28, 02:30:00,VALID,917.233,VALID,0,VALID,100,VALID,0.0169808,VALID,19.18,VALID,94,VALID,0.374199,
2005-08-28, 02:31:00,VALID,917.231,VALID,0,VALID,100,VALID,0,VALID,19.1795,VALID,94,VALID,0.263672,
2005-08-28, 02:32:00,VALID,917.251,VALID,0,VALID,99.998,VALID,0.0509425,VALID,19.1666,VALID,94,VALID,0.285247,
2005-08-28, 02:33:00,VALID,917.266,VALID,0,VALID,99.9278,VALID,0.0509425,VALID,19.1505,VALID,94,VALID,0.346058,
2005-08-28, 02:34:00,VALID,917.28,VALID,0,VALID,99.882,VALID,0.0169808,VALID,19.1246,VALID,94,VALID,0.428267,
2005-08-28, 02:35:00,VALID,917.292,VALID,0,VALID,99.9138,VALID,0.0169808,VALID,19.1149,VALID,94,VALID,0.250178,
2005-08-28, 02:36:01,VALID,917.313,VALID,0,VALID,99.9227,VALID,0,VALID,19.0921,VALID,94,VALID,0.215199,
2005-08-28, 02:37:00,VALID,917.293,VALID,0,VALID,99.9265,VALID,0,VALID,19.0963,VALID,94,VALID,0.489644,
2005-08-28, 02:38:00,VALID,917.285,VALID,0,VALID,100,VALID,0,VALID,19.0963,VALID,93,VALID,0.743096,
2005-08-28, 02:39:01,VALID,917.286,VALID,0,VALID,100,VALID,0,VALID,19.1159,VALID,85,VALID,0.758168,
2005-08-28, 02:40:00,VALID,917.293,VALID,0,VALID,99.9964,VALID,0,VALID,19.1057,VALID,55,VALID,0.838542,
2005-08-28, 02:41:00,VALID,917.294,VALID,0,VALID,99.9919,VALID,0,VALID,19.0961,VALID,55,VALID,0.937334,
2005-08-28, 02:42:01,VALID,917.302,VALID,0,VALID,99.9903,VALID,0,VALID,19.0926,VALID,56,VALID,0.731712,
2005-08-28, 02:43:00,VALID,917.3,VALID,0,VALID,100,VALID,0,VALID,19.1182,VALID,56,VALID,0.78125,
2005-08-28, 02:44:01,VALID,917.297,VALID,0,VALID,99.9135,VALID,0,VALID,19.1214,VALID,59,VALID,0.814808,
2005-08-28, 02:45:00,VALID,917.294,VALID,0,VALID,99.9184,VALID,-0.0339617,VALID,19.1124,VALID,81,VALID,0.532315,
2005-08-28, 02:46:00,VALID,917.315,VALID,0,VALID,99.9664,VALID,-0.0509425,VALID,19.1258,VALID,82,VALID,0.0475852,
2005-08-28, 02:47:00,VALID,917.312,VALID,0,VALID,99.8756,VALID,-0.0679233,VALID,19.1065,VALID,82,VALID,0,
2005-08-28, 02:48:00,VALID,917.311,VALID,0,VALID,99.9151,VALID,-0.0679233,VALID,19.0963,VALID,82,VALID,0,
2005-08-28, 02:49:00,VALID,917.272,VALID,0,VALID,99.9062,VALID,-0.0339617,VALID,19.1095,VALID,82,VALID,0.100818,
2005-08-28, 02:50:00,VALID,917.266,VALID,0,VALID,99.8464,VALID,-0.0509425,VALID,19.1097,VALID,121,VALID,0.46657,
2005-08-28, 02:51:01,VALID,917.259,VALID,0,VALID,99.8489,VALID,-0.0679233,VALID,19.0903,VALID,129,VALID,0.396621,
2005-08-28, 02:52:00,VALID,917.242,VALID,0,VALID,99.9578,VALID,-0.0849042,VALID,19.0647,VALID,129,VALID,0.272294,
2005-08-28, 02:53:00,VALID,917.23,VALID,0,VALID,99.999,VALID,-0.0849042,VALID,19.0613,VALID,129,VALID,0.279883,
2005-08-28, 02:54:00,VALID,917.24,VALID,0,VALID,100,VALID,-0.0849042,VALID,19.0386,VALID,130,VALID,0.592188,
2005-08-28, 02:55:00,VALID,917.238,VALID,0,VALID,100,VALID,-0.0679233,VALID,19.0297,VALID,147,VALID,0.766602,
2005-08-28, 02:56:00,VALID,917.265,VALID,0,VALID,100,VALID,-0.0679233,VALID,19.0195,VALID,154,VALID,0.90532,
2005-08-28, 02:57:00,VALID,917.264,VALID,0,VALID,100,VALID,-0.101885,VALID,19.0292,VALID,154,VALID,0.789595,
2005-08-28, 02:58:00,VALID,917.299,VALID,0,VALID,100,VALID,-0.0679233,VALID,19.0449,VALID,155,VALID,0.893483,
2005-08-28, 02:59:00,VALID,917.296,VALID,0,VALID,100,VALID,-0.0849042,VALID,19.0776,VALID,164,VALID,0.697027,
2005-08-28, 03:00:00,VALID,917.317,VALID,0,VALID,100,VALID,-0.0849042,VALID,19.1095,VALID,167,VALID,0.239397,
2005-08-28, 03:01:01,VALID,917.326,VALID,0,VALID,100,VALID,-0.101885,VALID,19.1258,VALID,167,VALID,0.071766,
2005-08-28, 03:02:00,VALID,917.313,VALID,0,VALID,100,VALID,-0.101885,VALID,19.1291,VALID,167,VALID,0.0495384,
2005-08-28, 03:03:00,VALID,917.299,VALID,0,VALID,100,VALID,-0.101885,VALID,19.1554,VALID,167,VALID,0.333079,
2005-08-28, 03:04:00,VALID,917.27,VALID,0,VALID,100,VALID,-0.0679233,VALID,19.1646,VALID,144,VALID,0.417492,
2005-08-28, 03:05:01,VALID,917.261,VALID,0,VALID,100,VALID,-0.101885,VALID,19.1715,VALID,142,VALID,0.369673,
2005-08-28, 03:06:00,VALID,917.254,VALID,0,VALID,100,VALID,-0.0679233,VALID,19.1939,VALID,146,VALID,0.0611328,
2005-08-28, 03:07:01,VALID,917.243,VALID,0,VALID,100,VALID,-0.0509425,VALID,19.1969,VALID,146,VALID,0.193229,
2005-08-28, 03:08:00,VALID,917.223,VALID,0,VALID,100,VALID,-0.101885,VALID,19.21,VALID,146,VALID,0.449132,
2005-08-28, 03:09:00,VALID,917.205,VALID,0,VALID,100,VALID,-0.0849042,VALID,19.2197,VALID,146,VALID,0.228087,
2005-08-28, 03:10:00,VALID,917.196,VALID,0,VALID,100,VALID,-0.0679233,VALID,19.2262,VALID,146,VALID,0.0948153,
2005-08-28, 03:11:00,VALID,917.148,VALID,0,VALID,100,VALID,-0.0849042,VALID,19.2257,VALID,146,VALID,0.341146,
2005-08-28, 03:12:01,VALID,917.108,VALID,0,VALID,100,VALID,-0.0509425,VALID,19.2354,VALID,146,VALID,0.264323,
2005-08-28, 03:13:01,VALID,917.096,VALID,0,VALID,100,VALID,-0.101885,VALID,19.2515,VALID,146,VALID,0.341933,
2005-08-28, 03:14:00,VALID,917.063,VALID,0,VALID,99.9621,VALID,-0.0509425,VALID,19.2354,VALID,146,VALID,0.442224,
2005-08-28, 03:15:00,VALID,917.013,VALID,0,VALID,99.9138,VALID,-0.0679233,VALID,19.2421,VALID,146,VALID,0.435404,
2005-08-28, 03:16:00,VALID,917.002,VALID,0,VALID,99.9087,VALID,-0.0679233,VALID,19.2294,VALID,144,VALID,0.507617,
2005-08-28, 03:17:01,VALID,916.977,VALID,0,VALID,99.8375,VALID,-0.0339617,VALID,19.226,VALID,144,VALID,0.356898,
2005-08-28, 03:18:01,VALID,916.959,VALID,0,VALID,99.8133,VALID,-0.0339617,VALID,19.2123,VALID,144,VALID,0.196057,
2005-08-28, 03:19:01,VALID,916.949,VALID,0,VALID,99.7485,VALID,-0.0169808,VALID,19.2036,VALID,144,VALID,0.0337936,
2005-08-28, 03:20:00,VALID,916.936,VALID,0,VALID,99.7561,VALID,-0.0679233,VALID,19.1778,VALID,144,VALID,0,
2005-08-28, 03:21:00,VALID,916.92,VALID,0,VALID,99.7803,VALID,-0.101885,VALID,19.1611,VALID,144,VALID,0,
2005-08-28, 03:22:00,VALID,916.929,VALID,0,VALID,99.7943,VALID,-0.0679233,VALID,19.1614,VALID,144,VALID,0,
2005-08-28, 03:23:00,VALID,916.918,VALID,0,VALID,99.8744,VALID,-0.0509425,VALID,19.1581,VALID,144,VALID,0.257626,
2005-08-28, 03:24:01,VALID,916.901,VALID,0,VALID,99.9468,VALID,-0.101885,VALID,19.148,VALID,144,VALID,0.318452,
2005-08-28, 03:25:00,VALID,916.902,VALID,0,VALID,99.9883,VALID,-0.0339617,VALID,19.1447,VALID,144,VALID,0.440518,
2005-08-28, 03:26:00,VALID,916.893,VALID,0,VALID,99.9952,VALID,-0.0679233,VALID,19.1549,VALID,146,VALID,0.553943,
2005-08-28, 03:27:00,VALID,916.89,VALID,0,VALID,100,VALID,-0.0509425,VALID,19.1447,VALID,151,VALID,0.679861,
2005-08-28, 03:28:01,VALID,916.881,VALID,0,VALID,100,VALID,-0.0339617,VALID,19.1512,VALID,147,VALID,0.687686,
2005-08-28, 03:29:00,VALID,916.903,VALID,0,VALID,99.9723,VALID,-0.0169808,VALID,19.1577,VALID,149,VALID,0.530342,
2005-08-28, 03:30:00,VALID,916.916,VALID,0,VALID,99.9354,VALID,0.0339617,VALID,19.1671,VALID,154,VALID,0.459847,
2005-08-28, 03:31:00,VALID,916.906,VALID,0,VALID,99.8973,VALID,0.0339617,VALID,19.1502,VALID,154,VALID,0.48274,
2005-08-28, 03:32:00,VALID,916.917,VALID,0,VALID,99.8909,VALID,0.0169808,VALID,19.1602,VALID,154,VALID,0.200465,
2005-08-28, 03:33:01,VALID,916.892,VALID,0,VALID,99.8667,VALID,0.0509425,VALID,19.1671,VALID,154,VALID,0.0988948,
2005-08-28, 03:34:00,VALID,916.904,VALID,0,VALID,99.84,VALID,0.0339617,VALID,19.1408,VALID,154,VALID,0.378806,